{"data":{"norad_id":68447,"epoch":"2026-05-25T03:04:27.046848Z","epoch_age_seconds":61100,"freshness":"FRESH","line1":"1 68447U 26067AH  26145.12809082  .00006966  00000+0  34019-3 0  9994","line2":"2 68447  97.4505 103.9372 0003471  89.9588 270.2044 15.18571823  8444","mean_motion":15.18571823,"eccentricity":0.0003471,"inclination_deg":97.4505,"raan_deg":103.9372,"arg_perigee_deg":89.9588,"mean_anomaly_deg":270.2044,"bstar":0.00034019,"rev_number":844,"period_min":94.82593962235,"perigee_km":507.76514464907,"apogee_km":512.54699769908,"semimajor_km":6888.2930711741,"source":"CELESTRAK","updated_at":"2026-05-25T13:38:07.841171Z"}}